Regional Weather Roundup
Issued by NWS Upton, NY

Current Version | Previous Version | Text Only | Print | Product List | Glossary Off
Versions: 1 2 3 4 5 6 7 8 9 10 11 12 13 14 15 16 17 18 19 20 21 22 23 24 25 26 27 28 29 30 31 32 33 34 35 36 37 38 39 40 41 42 43 44 45 46 47 48 49 50
000 ASUS41 KOKX 271905 RWROKX REGIONAL WEATHER ROUNDUP NATIONAL WEATHER SERVICE NEW YORK NY 200 PM EST TUE JAN 27 2015 NOTE: "FAIR" INDICATES FEW OR NO CLOUDS BELOW 12,000 FEET WITH NO SIGNIFICANT WEATHER AND/OR OBSTRUCTIONS TO VISIBILITY. NYZ071-072-176-178-NJZ106-104-272000- NEW YORK CITY METRO AREA CITY SKY/WX TMP DP RH WIND PRES REMARKS CENTRAL PARK PTSUNNY 28 15 58 VRB7G21 29.67F WCI 21 LAGUARDIA APRT CLOUDY 26 17 68 NW17G23 29.66S WCI 13 KENNEDY INTL PTSUNNY 26 17 68 NW17 29.66F WCI 13 NEWARK/LIBERTY CLOUDY 29 18 63 N17 29.66F WCI 17 BRNX BOT. GARD N/A N/A N/A N/A N8 29.65F TETERBORO PTSUNNY 27 14 58 N14G24 29.66F WCI 16 $$ NYZ177-179-078>081-272000- LONG ISLAND NEW YORK CITY SKY/WX TMP DP RH WIND PRES REMARKS FARMINGDALE LGT SNOW 26 14 60 N23G30 29.63S VSB 3/4 WCI 11 ISLIP CLOUDY 24 14 65 N22G32 29.58F WCI 9 SHIRLEY CLOUDY 23 13 65 NW20G32 29.59S WCI 8 WESTHAMPTON LGT SNOW 24 15 68 NW22G29 29.58R WCI 9 MONTAUK POINT N/A 23 18 81 NW18G28 29.54S WCI 9 $$ NYZ052-065-067-272000- HUDSON VALLEY CITY SKY/WX TMP DP RH WIND PRES REMARKS WHITE PLAINS MOSUNNY 22 14 71 N24G35 29.62S WCI 5 NEWBURGH LGT SNOW 23 18 80 N12 29.69F FOG WCI 12 MONTGOMERY LGT SNOW 24 17 74 NE7 29.67F WCI 16 POUGHKEEPSIE CLOUDY 22 13 68 N14G25 29.71S HAZE WCI 9 ALBANY SNOW 13 7 77 NE10 29.81S VSB 1/2 WCI 0 $$ NJZ001-105-106-008-010-013-015-019>022-104-272000- NEW JERSEY CITY SKY/WX TMP DP RH WIND PRES REMARKS NEWARK/LIBERTY CLOUDY 29 18 63 N17 29.66F WCI 17 TETERBORO PTSUNNY 27 14 58 N14G24 29.66F WCI 16 CALDWELL CLOUDY 27 15 61 NW14 29.67F WCI 16 MORRISTOWN CLOUDY 28 18 64 N16G28 29.67F WCI 17 SOMERVILLE CLOUDY 28 16 60 N15G22 29.67F WCI 16 SUSSEX FLURRIES 25 16 68 N10 29.68F WCI 15 ANDOVER N/A 25 16 68 N6G18 29.68F WCI 18 TRENTON CLOUDY 28 12 51 NW13G21 29.68F WCI 17 MILLVILLE PTSUNNY 35 21 56 NW18 29.69F WCI 24 ATLANTIC CITY PTSUNNY 31 22 69 NW14G26 29.67F WCI 21 WRIGHTSTOWN PTSUNNY 27 19 72 NW18G24 29.66F WCI 13 TOMS RIVER CLOUDY 27 18 69 NW16G25 29.66S WCI 14 BELMAR CLOUDY 27 16 63 NW18G24 29.64S WCI 13 $$ PAZ047>061-062-071-272000- EASTERN PENNSYLVANIA CITY SKY/WX TMP DP RH WIND PRES REMARKS PHILADELPHIA PTSUNNY 33 12 41 NW22 29.71F WCI 21 ALLENTOWN CLOUDY 28 10 46 NW16G23 29.71F WCI 16 SCRANTON PTSUNNY 23 7 50 W10 29.74F WCI 12 $$ CTZ002-004>006-009-010-012-RIZ004-006-007-MAZ004-011-015-272000- SOUTHERN NEW ENGLAND IN CT CITY SKY/WX TMP DP RH WIND PRES REMARKS BRADLEY INTL CLOUDY 26 12 55 NW15G24 29.57S WCI 14 HARTFORD CLOUDY 26 12 55 N20G32 29.58F HAZE WCI 12 DANBURY PTSUNNY 20 8 60 N14G23 29.65S WCI 7 WTRBRY/OXFORD NOT AVBL BRIDGEPORT MIX PCPN 21 12 68 NW26G35 29.62S WCI 4 MERIDEN CLOUDY 22 10 60 NW15G26 29.59S WCI 9 NEW HAVEN CLOUDY 23 11 60 NW14G26 29.60R WCI 11 CHESTER LGT SNOW 25 14 63 N21G31 29.53S WCI 10 GROTON LGT SNOW 20 15 81 NW15G24 29.53R WCI 6 WILLIMANTIC LGT SNOW 21 13 71 NW10 29.55R WCI 10 IN RI CITY SKY/WX TMP DP RH WIND PRES REMARKS PROVIDENCE LGT SNOW 20 12 71 N18G30 29.49R WCI 5 BLOCK ISLAND CLOUDY 21 12 68 N23G30 29.46S VSB 1 WCI 5 WESTERLY LGT SNOW 22 16 78 NW13G21 29.51S WCI 10 IN MA CITY SKY/WX TMP DP RH WIND PRES REMARKS BOSTON SNOW 15 12 88 NW21G29 29.50R VSB 1/4 WCI -2 WORCESTER SNOW 18 14 84 N16G28 29.47R VSB 1/4 WCI 3 WESTFIELD CLOUDY 27 13 55 N23G33 29.58S WCI 12 PROVINCETOWN N/A N/A N/A N/A MISG N/A NANTUCKET SNOW 25 24 96 N49G63 29.23S VSB 1/4 WCI 4 $$ ANZ330-335-338-340-345-350-353-355-272000- COASTAL MARINE OBSERVATIONS STATION/POSITION TIME SKY/WX TEMP WIND PRES VSBY WAVE AIR SEA DIR/SP/G HT/PER (UTC) (F) (DEG/KT/KT) (MB) (MI) (FT/S) NY HARB ENTRANCE 1900 29 40 340/ 25/ 29 1002.6 9/12 4S FIRE IS 1900 38 N/A 7/13 20S FIRE ISLAND 1800 43 1002.3 10/12 23SW MTP 1900 N/A 10/12 HUDSON CANYON NOT AVBL EXECUTION ROCKS 1900 25 34 320/ 19/ 27 N/A WESTERN LI SOUND 1900 26 350/ 23/ 33 N/A 3/ 3 CENTRAL LI SOUND 1900 26 36 310/ 17/ 21 N/A 3/ 4 EASTERN LI SOUND NOT AVBL ROBBINS REEF 1900 27 350/ 17/ 20 1003.1 $$ >>>>>>>>>>>>>>>>>>>>>>>>>>>> KEY <<<<<<<<<<<<<<<<<<<<<<<<<<< > < > SKY/WX - SKY CONDITION/PRESENT WEATHER < > TMP - TEMPERATURE IN FAHRENHEIT < > DP - DEWPOINT IN FAHRENHEIT < > RH - RELATIVE HUMIDITY IN PERCENT < > WIND - DIRECTION AND SPEED IN MPH < > PRES - MEAN SEA LEVEL PRESSURE IN INCHES OF HG < > WCI - WIND CHILL INDEX < > VSB - VISIBILITY IN MILES < > HX - HEAT INDEX < > TC - TEMPERATURE IN CELSIUS < > VRB - VARIABLE WIND DIRECTION < > < >>>>>>>>>>>>>>>>>>>>>>>>>>>> KEY <<<<<<<<<<<<<<<<<<<<<<<<<<<

USA.gov is the U.S. government's official web portal to all federal, state and local government web resources and services.